Weather History for LGSA - December, 2012

Change the Weather History Date:

Monday, December 24, 2012

  Actual Average Record
Temperature  
Mean Temperature 50 °F -  
Max Temperature 52 °F 59 °F 75 °F (2010)
Min Temperature 48 °F 47 °F 41 °F (2005)
Degree Days  
Heating Degree Days 15    
Moisture  
Dew Point 44 °F    
Average Humidity 79    
Maximum Humidity 93    
Minimum Humidity 58    
Precipitation  
Precipitation 0.00 in 0.17 in - ()
Sea Level Pressure  
Sea Level Pressure 30.13 in    
Wind  
Wind Speed 7 mph ()    
Max Wind Speed 14 mph    
Max Gust Speed -    
Visibility 5.9 miles    
Events Rain    
Averages and records for this station are not official NWS values.
T = Trace of Precipitation, MM = Missing Value Source: Averaged Metar Reports

Daily Weather History Graph

Daily Weather History Graph

Search for Another Location

Airport or City:

Trip Planner

Search our weather history database for the weather conditions in past years. The results will help you decide how hot, cold, wet, or windy it might be!

Date:

Astronomy

Dec. 24, 2012 Rise Set
Actual Time 7:30 AM EET 5:15 PM EET
Civil Twilight 7:02 AM EET 5:44 PM EET
Nautical Twilight 6:30 AM EET 6:16 PM EET
Astronomical Twilight 5:59 AM EET 6:47 PM EET
Moon 2:28 PM EET (12/24) 3:54 AM EET (12/24)
Length of Visible Light 10h 42m
Length of Day
9h 45m
Waxing Gibbous, 86% of the Moon is Illuminated
Dec 24
Waxing Gibbous
Dec 28
Full
Jan 5
Last Quarter
Jan 11
New
Jan 19
First Quarter

Hourly Weather History & Observations

Time (EET) Temp. Dew Point Humidity Pressure Visibility Wind Dir Wind Speed Gust Speed Precip Events Conditions
12:20 AM 50.0 °F 46.4 °F 87% 30.06 in 5.6 mi North 10.4 mph - N/A Rain Light Rain
12:50 AM 50.0 °F 46.4 °F 87% 30.06 in 5.6 mi North 11.5 mph - N/A Rain Light Rain
1:20 AM 50.0 °F 46.4 °F 87% 30.06 in 5.6 mi North 10.4 mph - N/A Rain Light Rain
1:50 AM 48.2 °F 46.4 °F 93% 30.09 in 5.0 mi NW 6.9 mph - N/A Rain Light Rain
2:00 AM 49 °F 47 °F 89% 30.11 in 5 mi NW 6.9 mph - - Rain Light Rain
2:20 AM 48.2 °F 46.4 °F 93% 30.09 in 5.0 mi NW 9.2 mph - N/A Rain Light Rain
2:50 AM 48.2 °F 46.4 °F 93% 30.09 in 5.0 mi NNW 5.8 mph - N/A Rain Light Rain
3:20 AM 48.2 °F 46.4 °F 93% 30.09 in 5.0 mi NNW 5.8 mph - N/A Rain Light Rain
3:50 AM 48.2 °F 46.4 °F 93% 30.06 in 5.0 mi North 6.9 mph - N/A Rain Light Rain
4:20 AM 48.2 °F 46.4 °F 93% 30.06 in 5.0 mi North 6.9 mph - N/A Rain Light Rain
4:50 AM 50.0 °F 46.4 °F 87% 30.09 in 5.0 mi North 11.5 mph - N/A Rain Light Rain
5:20 AM 50.0 °F 46.4 °F 87% 30.09 in 5.0 mi North 11.5 mph - N/A Rain Light Rain
5:50 AM 50.0 °F 46.4 °F 87% 30.09 in 5.0 mi NNW 9.2 mph - N/A Rain Light Rain
6:20 AM 50.0 °F 46.4 °F 87% 30.09 in 5.0 mi NNW 9.2 mph - N/A Rain Light Rain
6:50 AM 50.0 °F 44.6 °F 82% 30.12 in 5.0 mi North 10.4 mph - N/A Rain Light Rain
7:20 AM 50.0 °F 44.6 °F 82% 30.12 in 6.2 mi North 9.2 mph - N/A   Overcast
7:50 AM 51.8 °F 44.6 °F 76% 30.09 in 6.2 mi North 6.9 mph - N/A Rain Light Rain
8:00 AM 51 °F 44 °F 70% 30.12 in 6 mi North 6.9 mph - - Rain Light Rain
8:20 AM 51.8 °F 44.6 °F 76% 30.09 in 6.2 mi North 4.6 mph - N/A Rain Light Rain
8:50 AM 51.8 °F 44.6 °F 76% 30.12 in 6.2 mi North 5.8 mph - N/A Rain Light Rain
9:20 AM 51.8 °F 44.6 °F 76% 30.12 in 6.2 mi North 5.8 mph - N/A Rain Light Rain
9:50 AM 51.8 °F 44.6 °F 76% 30.12 in 6.2 mi North 4.6 mph - N/A   Overcast
10:20 AM 51.8 °F 44.6 °F 76% 30.12 in 6.2 mi NNW 4.6 mph - N/A   Overcast
10:50 AM 51.8 °F 44.6 °F 76% 30.12 in 6.2 mi NNW 4.6 mph - N/A   Overcast
11:20 AM 51.8 °F 44.6 °F 76% 30.12 in 6.2 mi NNW 4.6 mph - N/A   Overcast
11:50 AM 51.8 °F 44.6 °F 76% 30.15 in 6.2 mi NNW 6.9 mph - N/A   Overcast
12:20 PM 51.8 °F 44.6 °F 76% 30.15 in 6.2 mi North 6.9 mph - N/A   Overcast
12:50 PM 51.8 °F 42.8 °F 71% 30.12 in 6.2 mi North 6.9 mph - N/A   Overcast
1:20 PM 51.8 °F 42.8 °F 71% 30.12 in 6.2 mi North 9.2 mph - N/A   Overcast
1:50 PM 51.8 °F 42.8 °F 71% 30.15 in 6.2 mi North 11.5 mph - N/A   Overcast
2:00 PM 53 °F 43 °F 58% 30.16 in 6 mi North 11.5 mph - -   Partly Cloudy
2:20 PM 51.8 °F 42.8 °F 71% 30.15 in 6.2 mi North 13.8 mph - N/A   Overcast
2:50 PM 51.8 °F 42.8 °F 71% 30.15 in 6.2 mi North 9.2 mph - N/A   Overcast
3:20 PM 51.8 °F 42.8 °F 71% 30.15 in 6.2 mi North 13.8 mph - N/A   Overcast
3:50 PM 51.8 °F 42.8 °F 71% 30.15 in 6.2 mi NNE 11.5 mph - N/A   Overcast
4:20 PM 51.8 °F 42.8 °F 71% 30.15 in 6.2 mi North 11.5 mph - N/A   Overcast
4:50 PM 51.8 °F 42.8 °F 71% 30.15 in 6.2 mi North 9.2 mph - N/A   Mostly Cloudy
5:20 PM 51.8 °F 42.8 °F 71% 30.15 in 6.2 mi North 9.2 mph - N/A   Mostly Cloudy
5:50 PM 51.8 °F 42.8 °F 71% 30.15 in 6.2 mi North 6.9 mph - N/A   Mostly Cloudy
6:50 PM 51.8 °F 44.6 °F 76% 30.18 in 6.2 mi North 6.9 mph - N/A   Mostly Cloudy
7:20 PM 51.8 °F 44.6 °F 76% 30.18 in 6.2 mi North 4.6 mph - N/A   Mostly Cloudy
7:50 PM 50.0 °F 42.8 °F 76% 30.18 in 6.2 mi Calm Calm - N/A   Mostly Cloudy
8:00 PM 51 °F 43 °F 66% 30.21 in 6 mi Calm Calm - -   Mostly Cloudy
8:20 PM 50.0 °F 42.8 °F 76% 30.18 in 6.2 mi Calm Calm - N/A   Mostly Cloudy
8:50 PM 50.0 °F 42.8 °F 76% 30.21 in 6.2 mi North 4.6 mph - N/A   Mostly Cloudy
9:50 PM 50.0 °F 42.8 °F 76% 30.21 in 6.2 mi Calm Calm - N/A   Mostly Cloudy
10:20 PM 50.0 °F 42.8 °F 76% 30.21 in 6.2 mi Calm Calm - N/A   Mostly Cloudy
10:50 PM 50.0 °F 44.6 °F 82% 30.21 in 6.2 mi Calm Calm - N/A   Mostly Cloudy
11:50 PM 50.0 °F 44.6 °F 82% 30.21 in 6.2 mi Calm Calm - N/A   Mostly Cloudy